Location: *
(52.2090°N, 4.1550°W)
Time: 06:54:30
(UTC+00:00)

Cosmos 1570 Rocket - Pass Details

Date: 19 July 2019
Orbit: 763 x 788 km, 74.1° (Epoch: 24 August)

Event Time Altitude Azimuth Distance (km) Brightness Sun altitude
Rises 23:32:51 0° 331° (NNW) 3,242 8.7 -16.2°
Reaches altitude 10° 23:35:16 10° 327° (NNW) 2,312 7.6 -16.3°
Maximum altitude 23:40:21 52° 252° (WSW) 948 4.4 -16.4°
Enters shadow 23:43:02 26° 188° (S) 1,469 4.9 -16.5°
